Temperature
-4 -4 -5 -5 -5 -6 -6 -6 -5 -5 -6 -6 -6 -7 -7 -7 -7 -7 -7 -7 -7 -7 -7 -7 -7 -6 -6 -6 -6 -6 -5 -5 -5 -5 -5 -5 -5 -5 -4 -4 -4 -4 -4 -4
-5 -5 -5 -6 -6 -6 -6 -6 -7 -6 -6 -7 -8 -8 -8 -8 -8 -8 -8 -8 -8 -8 -8 -8 -7 -7 -7 -6 -6 -6 -6 -6 -6 -6 -6 -5 -5 -5 -5 -5 -5 -5 -5 -5
-5 -5 -5 -5 -6 -7 -7 -8 -7 -7 -7 -8 -9 -8 -8 -9 -9 -9 -9 -9 -9 -9 -9 -9 -8 -8 -8 -7 -7 -7 -7 -7 -6 -6 -6 -6 -6 -6 -6 -6 -5 -5 -5 -5
-6 -6 -5 -4 -8 -8 -8 -9 -9 -9 -9 -9 -9 -9 -8 -8 -9 -9 -9 -10 -10 -10 -9 -9 -9 -9 -8 -8 -8 -8 -7 -7 -7 -7 -7 -7 -7 -6 -6 -6 -6 -6 -6 -6
-6 -6 -6 -6 -8 -9 -8 -8 -9 -10 -10 -10 -10 -10 -9 -8 -9 -9 -10 -10 -10 -10 -10 -10 -9 -9 -9 -9 -8 -8 -8 -8 -8 -8 -7 -7 -7 -7 -7 -6 -6 -6 -6 -6
-7 -6 -6 -6 -8 -9 -8 -8 -9 -10 -10 -10 -10 -10 -9 -9 -10 -10 -10 -10 -10 -10 -10 -10 -10 -10 -9 -9 -9 -9 -9 -8 -8 -8 -8 -8 -8 -7 -7 -7 -7 -7 -7 -7
-7 -7 -7 -8 -9 -9 -7 -7 -9 -9 -9 -10 -11 -10 -10 -10 -10 -11 -11 -11 -11 -11 -11 -10 -10 -10 -10 -10 -10 -9 -9 -9 -9 -9 -9 -9 -8 -8 -8 -8 -8 -7 -7 -7
-8 -8 -7 -9 -10 -9 -9 -9 -9 -9 -9 -10 -10 -10 -10 -11 -11 -11 -11 -11 -11 -11 -11 -11 -11 -11 -10 -10 -10 -10 -10 -9 -9 -9 -9 -9 -9 -8 -8 -8 -8 -8 -8 -8
-9 -8 -9 -10 -9 -9 -9 -9 -9 -10 -10 -10 -10 -11 -11 -11 -11 -11 -12 -12 -12 -11 -11 -11 -11 -11 -11 -11 -11 -10 -10 -10 -10 -10 -9 -9 -9 -9 -9 -9 -9 -9 -9 -9
-11 -10 -10 -10 -9 -9 -9 -10 -10 -10 -10 -10 -11 -11 -11 -12 -12 -12 -12 -12 -12 -12 -12 -11 -11 -11 -11 -11 -11 -11 -11 -11 -10 -10 -10 -10 -10 -10 -10 -10 -10 -10 -10 -10
-11 -11 -11 -9 -9 -9 -10 -10 -10 -10 -10 -11 -11 -11 -12 -12 -12 -12 -12 -12 -12 -12 -12 -12 -12 -12 -12 -12 -12 -11 -11 -11 -11 -11 -11 -11 -11 -11 -11 -11 -11 -10 -10 -10
-10 -10 -11 -10 -9 -10 -10 -10 -10 -11 -11 -11 -11 -12 -12 -12 -12 -13 -13 -13 -12 -13 -13 -12 -12 -12 -12 -12 -12 -12 -12 -12 -12 -12 -12 -12 -11 -11 -11 -11 -11 -11 -11 -11
-10 -10 -10 -10 -10 -10 -11 -11 -11 -11 -11 -11 -12 -12 -12 -13 -13 -13 -13 -13 -13 -13 -13 -13 -13 -13 -12 -12 -12 -12 -12 -12 -12 -12 -12 -12 -12 -12 -11 -11 -11 -11 -11 -11
-10 -10 -11 -10 -11 -11 -11 -11 -11 -11 -12 -12 -12 -12 -13 -13 -13 -13 -13 -13 -13 -13 -13 -13 -13 -13 -13 -13 -13 -13 -13 -13 -13 -13 -13 -13 -13 -13 -12 -12 -12 -11 -11 -11
-10 -11 -11 -11 -11 -11 -11 -11 -11 -11 -12 -12 -12 -13 -13 -13 -13 -13 -13 -13 -13 -13 -13 -13 -13 -13 -13 -13 -13 -13 -13 -13 -13 -13 -13 -13 -13 -13 -13 -13 -13 -12 -12 -12
-11 -11 -11 -11 -11 -11 -11 -11 -12 -12 -12 -12 -13 -13 -13 -13 -13 -13 -13 -13 -13 -13 -13 -13 -13 -13 -13 -13 -13 -13 -13 -13 -13 -13 -13 -13 -13 -13 -13 -13 -13 -13 -13 -12
-11 -11 -11 -11 -11 -11 -12 -12 -12 -12 -12 -13 -13 -13 -13 -13 -13 -13 -13 -14 -14 -14 -14 -14 -14 -14 -14 -14 -14 -14 -14 -14 -14 -14 -14 -14 -14 -14 -14 -14 -14 -13 -13 -13
-11 -11 -11 -11 -11 -12 -12 -12 -12 -13 -13 -13 -13 -13 -13 -13 -13 -14 -14 -14 -14 -13 -13 -14 -14 -14 -14 -14 -14 -14 -14 -14 -14 -14 -14 -14 -14 -14 -14 -14 -14 -14 -14 -14
-11 -11 -11 -11 -11 -12 -12 -12 -12 -13 -13 -13 -13 -13 -13 -14 -14 -14 -14 -14 -14 -13 -13 -14 -14 -14 -14 -14 -14 -14 -14 -14 -14 -14 -15 -15 -15 -15 -15 -15 -15 -14 -14 -14
-11 -11 -11 -11 -11 -12 -12 -12 -12 -12 -13 -13 -13 -13 -13 -13 -14 -14 -14 -14 -14 -14 -14 -14 -14 -14 -14 -14 -15 -15 -15 -15 -15 -15 -15 -15 -15 -15 -15 -15 -15 -15 -15 -15
-11 -11 -11 -11 -11 -12 -12 -12 -12 -12 -13 -13 -13 -13 -13 -14 -14 -14 -14 -14 -14 -14 -14 -14 -14 -14 -15 -15 -15 -15 -15 -15 -15 -15 -15 -15 -15 -15 -15 -15 -15 -15 -15 -15
-11 -11 -11 -12 -12 -12 -12 -12 -13 -13 -13 -13 -13 -13 -14 -14 -14 -14 -14 -14 -14 -14 -14 -14 -15 -15 -15 -15 -15 -15 -15 -15 -15 -15 -15 -15 -16 -16 -16 -16 -15 -15 -15 -15
-11 -12 -12 -12 -12 -12 -12 -12 -13 -13 -13 -13 -13 -14 -14 -14 -14 -14 -14 -14 -14 -15 -15 -15 -15 -15 -15 -15 -15 -15 -15 -15 -15 -15 -15 -16 -16 -16 -16 -16 -16 -16 -15 -15
-12 -12 -12 -12 -12 -12 -13 -13 -13 -13 -13 -13 -13 -14 -14 -14 -14 -14 -15 -15 -15 -15 -15 -15 -15 -15 -15 -15 -15 -15 -15 -15 -15 -15 -16 -16 -16 -16 -16 -16 -16 -16 -15 -15
-12 -12 -12 -12 -13 -13 -13 -13 -13 -13 -13 -13 -14 -14 -14 -14 -14 -14 -15 -15 -15 -15 -15 -15 -15 -15 -15 -15 -15 -15 -15 -16 -16 -16 -16 -16 -16 -16 -16 -16 -16 -16 -16 -16
-12 -12 -13 -13 -13 -13 -13 -13 -13 -13 -14 -14 -14 -14 -14 -14 -14 -15 -15 -15 -15 -15 -15 -15 -15 -15 -15 -15 -15 -16 -16 -16 -16 -16 -16 -16 -16 -16 -16 -16 -16 -16 -16 -16
-13 -13 -13 -13 -13 -13 -13 -13 -14 -14 -14 -14 -14 -14 -14 -14 -15 -15 -15 -15 -15 -15 -15 -15 -15 -15 -15 -15 -15 -16 -16 -16 -16 -16 -16 -16 -16 -16 -16 -16 -16 -16 -16 -16
Wind_Speed
5 4 2 4 5 4 6 6 7 7 6 8 6 5 5 4 5 6 7 7 8 8 8 8 8 8 8 8 8 7 6 6 7 7 6 5 5 4 4 5 5 5 5 5
3 2 1 4 6 6 6 5 6 7 10 6 4 3 3 4 5 7 8 8 8 9 9 9 9 9 10 9 9 7 7 7 7 6 6 5 5 5 4 5 5 5 5 5
4 3 4 6 5 5 4 4 5 7 6 4 4 5 5 5 6 7 8 8 9 9 9 9 9 9 10 10 8 7 7 7 7 6 6 5 5 5 5 5 5 5 5 5
2 4 5 5 1 3 3 3 4 4 4 4 6 6 5 5 5 6 7 8 9 9 9 9 9 9 9 9 8 7 7 7 7 6 6 5 5 5 5 4 4 5 5 5
1 3 7 5 1 2 2 5 3 4 5 5 5 5 4 3 2 4 6 7 8 8 9 9 10 10 9 8 8 7 7 7 7 7 6 6 5 5 5 4 5 4 4 4
2 3 6 4 1 1 1 4 2 2 4 4 4 4 5 4 5 7 7 7 8 8 8 8 9 9 8 8 8 8 8 8 7 6 6 6 6 5 5 4 5 5 5 4
4 5 7 3 1 1 2 5 3 3 4 3 3 5 6 6 7 6 7 8 8 8 8 8 9 8 8 8 8 8 8 8 7 6 6 6 5 5 4 4 4 4 4 4
3 4 6 1 2 3 4 3 3 3 3 4 5 6 6 6 7 7 8 8 8 8 8 8 8 7 8 9 9 8 8 7 7 6 6 5 4 4 4 3 4 4 4 4
6 5 2 2 2 2 2 3 4 3 4 4 4 6 6 6 6 6 7 8 7 7 8 9 8 7 8 9 9 8 8 8 7 7 6 5 4 4 4 3 3 3 3 3
3 5 4 3 3 3 3 4 5 4 4 3 4 5 6 6 6 6 7 7 7 7 8 9 9 9 8 9 8 8 8 8 7 6 6 5 4 3 3 3 3 3 3 3
4 5 5 3 3 4 4 4 4 4 4 4 4 4 4 5 6 6 7 7 7 7 8 9 9 9 9 9 8 8 8 7 7 6 5 5 4 3 3 3 3 3 3 3
5 4 3 5 4 3 4 5 5 5 5 4 3 4 4 5 5 5 6 6 7 7 8 9 9 9 9 9 8 7 7 7 6 5 5 4 4 5 6 5 7 7 6 5
4 3 3 5 4 3 4 5 5 4 4 4 4 3 3 4 5 5 6 7 7 8 8 8 9 9 9 9 8 7 7 7 5 5 5 4 4 4 5 6 7 7 8 7
2 2 3 3 3 4 4 4 4 4 3 3 3 3 3 4 5 6 6 7 7 7 7 8 8 9 9 9 8 8 7 7 7 5 4 4 4 4 4 5 5 5 6 7
3 3 4 4 4 4 3 3 3 4 4 4 3 3 4 4 6 6 7 7 7 7 7 8 9 9 9 9 8 8 7 5 5 4 4 4 4 4 4 4 4 4 5 5
3 3 3 4 4 4 3 3 3 4 4 4 4 5 5 5 6 6 6 6 6 8 8 8 9 9 8 8 8 7 6 9 7 5 4 4 4 4 4 4 4 4 4 5
1 3 3 4 5 4 4 4 4 4 4 5 5 5 5 5 6 6 6 6 6 7 7 7 8 8 8 8 7 6 6 7 9 6 4 4 4 4 4 4 4 4 4 5
4 4 4 4 4 5 5 4 4 4 4 5 4 4 4 5 6 7 7 7 7 7 7 7 8 8 7 7 6 5 5 5 5 4 4 4 4 4 4 4 4 4 4 5
3 4 4 4 4 4 4 4 4 4 4 4 4 4 5 5 6 6 7 6 7 8 8 8 12 9 7 8 8 4 5 5 5 4 4 6 5 4 4 4 4 4 4 4
3 3 4 4 3 3 4 4 4 4 4 3 3 4 5 6 6 6 6 6 5 6 8 9 8 7 7 7 8 4 5 5 5 5 4 4 4 4 4 4 4 4 4 4
4 4 4 4 4 4 4 4 3 4 4 3 3 5 6 7 6 5 5 6 6 7 8 10 7 6 6 7 7 4 5 5 5 5 4 4 4 4 4 4 5 5 4 4
3 3 4 4 4 4 4 3 3 4 4 4 4 5 5 6 6 5 5 5 7 11 8 5 6 8 9 8 4 4 4 5 5 4 4 4 4 5 5 5 5 5 4 4
3 3 3 3 4 4 4 4 4 4 4 5 5 5 5 6 5 5 6 5 6 10 8 6 9 13 12 6 4 4 5 5 5 5 5 4 5 5 5 5 5 5 4 4
3 3 3 3 2 3 4 5 4 4 5 6 5 5 5 5 5 4 5 9 11 12 7 9 13 13 11 4 4 4 4 5 5 5 5 4 4 5 5 5 5 5 5 5
3 3 3 3 3 4 5 5 5 5 4 5 5 5 4 4 5 6 6 7 10 10 7 9 13 12 7 4 4 5 5 5 5 5 4 5 5 5 5 5 5 5 5 5
3 3 3 4 4 4 3 3 4 4 4 5 5 5 4 4 5 5 5 6 7 9 7 6 7 8 5 5 5 5 5 6 7 6 5 5 6 6 6 6 6 6 6 6
3 3 3 3 3 3 3 3 4 5 4 5 6 5 5 5 5 5 5 5 5 6 6 6 6 5 5 5 6 6 5 5 5 6 6 5 5 6 6 7 6 7 7 7
Wind_Direction
254 263 238 242 248 204 200 210 219 249 250 274 283 291 300 312 323 327 330 334 334 331 329 328 328 327 325 321 318 315 312 307 302 299 291 287 284 281 278 275 271 268 266 267
277 240 249 276 263 235 229 236 245 270 277 286 301 319 311 316 319 320 323 327 328 330 331 328 326 324 323 320 316 314 308 304 305 306 299 292 289 286 283 279 277 271 264 263
272 303 327 282 250 199 208 217 207 237 260 311 319 310 303 307 311 310 316 321 325 326 324 322 320 318 315 313 314 313 307 305 304 303 300 295 294 292 286 281 278 273 268 263
295 6 261 250 78 163 207 245 233 256 286 298 294 298 295 292 294 306 317 321 321 320 320 319 316 315 313 314 314 311 310 308 304 298 295 293 290 288 287 282 276 273 273 266
185 266 273 288 245 158 217 277 236 249 283 304 316 319 304 316 327 312 312 312 311 313 313 315 316 316 318 318 316 316 314 310 307 301 293 291 286 283 283 284 279 277 278 275
164 225 252 267 293 284 124 286 277 246 283 305 344 327 303 331 330 321 319 318 319 319 318 319 318 321 320 318 319 316 312 308 305 300 292 286 284 285 287 283 279 277 278 274
205 232 264 277 294 108 175 271 305 282 287 291 271 263 290 314 318 319 317 318 321 321 322 320 321 323 321 319 316 311 312 314 313 305 295 287 287 287 285 281 282 277 275 276
181 217 259 286 118 187 239 299 308 303 293 286 282 294 306 313 317 323 324 325 327 327 325 325 327 328 324 320 316 318 321 323 320 312 304 305 297 296 291 280 278 282 283 288
197 220 259 165 205 259 293 289 297 298 294 290 292 299 309 313 316 319 321 323 327 325 324 328 331 332 325 320 323 326 328 326 322 321 319 315 305 303 305 299 292 295 291 293
251 269 263 255 271 287 282 278 286 289 290 287 287 291 302 310 315 321 322 324 326 328 329 330 333 334 325 322 327 328 327 326 325 325 327 328 322 317 312 303 297 298 300 302
261 287 308 292 273 284 296 303 309 312 298 286 284 291 298 306 312 317 321 325 328 330 328 326 330 330 330 332 331 330 328 328 330 330 326 326 324 312 307 299 297 299 294 291
241 252 243 277 306 311 307 309 310 314 316 313 295 290 303 307 312 317 321 326 330 330 328 327 330 330 332 333 332 331 332 333 332 331 330 329 328 328 328 325 323 321 320 314
247 282 256 280 303 313 304 306 311 307 301 307 312 304 306 309 315 320 323 327 327 325 325 327 329 330 332 334 334 332 327 326 325 328 329 330 331 331 329 330 329 332 329 323
272 297 291 290 295 312 313 316 320 323 319 313 313 317 317 317 319 321 320 319 320 323 325 327 328 328 331 333 333 332 328 328 329 325 325 325 325 324 322 324 327 329 330 331
272 241 256 288 305 314 323 330 334 329 329 331 327 321 322 319 315 313 315 320 325 326 326 328 327 326 331 333 332 330 328 325 324 324 327 326 324 322 320 319 318 321 329 336
295 289 285 290 296 310 322 323 316 313 319 321 319 317 314 310 308 311 316 323 326 322 321 323 320 322 328 328 328 328 327 330 334 333 332 330 328 324 322 321 320 323 326 326
283 293 296 298 298 302 297 290 286 294 304 306 306 313 319 320 320 319 319 318 312 306 309 312 313 319 323 323 323 324 325 329 336 336 334 331 331 329 324 323 325 326 321 319
239 258 262 266 276 284 291 292 289 293 295 298 308 315 316 313 309 310 312 315 315 313 311 311 314 320 322 323 324 322 323 325 329 327 327 328 329 329 329 328 326 323 321 323
263 269 276 277 273 272 280 285 288 291 295 299 301 299 295 294 297 303 310 314 315 316 316 316 325 330 320 321 329 322 325 324 323 323 323 326 332 330 326 323 321 321 319 320
291 294 292 289 286 275 277 284 289 292 292 293 297 301 303 303 305 308 309 302 292 292 301 313 318 315 314 319 328 325 323 322 321 322 323 323 322 322 320 318 317 316 315 313
294 296 294 291 292 287 277 276 279 285 293 292 285 288 293 300 304 304 307 306 306 308 312 319 324 314 314 323 329 329 326 322 318 317 317 317 317 316 315 315 314 313 312 313
295 294 294 295 295 296 295 288 279 283 292 292 287 288 295 302 306 303 284 279 300 315 321 312 312 317 326 330 330 324 321 321 319 316 313 311 310 310 311 312 311 310 311 311
284 282 287 291 289 292 301 296 286 282 281 283 284 285 286 288 293 298 303 298 305 314 320 311 317 323 329 335 325 318 316 314 312 310 308 306 305 305 305 306 306 306 306 307
280 286 288 291 292 297 301 302 296 288 282 283 280 277 279 292 295 276 276 304 315 317 316 315 322 325 329 331 317 310 307 305 303 301 301 301 300 299 299 300 300 301 301 300
282 283 285 291 291 287 288 299 303 298 296 295 293 289 280 270 278 295 299 302 310 316 313 315 320 324 328 315 309 304 301 297 297 300 299 300 297 297 296 295 294 296 295 293
275 277 277 274 273 280 288 294 296 297 299 301 303 299 294 289 285 291 298 300 301 311 314 309 311 314 315 309 303 301 299 303 306 306 299 297 296 294 294 294 292 290 289 288
283 283 287 293 288 280 280 280 282 287 287 286 293 296 297 299 300 301 302 305 306 307 306 307 308 309 308 307 305 302 300 298 297 296 296 294 292 291 291 289 289 288 288 286
Height
1507 1505 1506 1506 1506 1507 1508 1506 1505 1498 1498 1492 1491 1491 1489 1487 1486 1484 1482 1479 1477 1475 1472 1469 1466 1464 1461 1459 1458 1456 1454 1452 1451 1450 1449 1449 1448 1448 1447 1447 1447 1447 1447 1446
1507 1503 1505 1505 1502 1503 1504 1504 1503 1499 1496 1491 1490 1489 1488 1486 1485 1482 1480 1478 1475 1473 1470 1467 1464 1461 1458 1455 1454 1452 1450 1448 1447 1446 1445 1444 1444 1443 1443 1443 1442 1442 1441 1441
1505 1505 1502 1501 1498 1500 1502 1501 1500 1498 1494 1491 1489 1488 1487 1485 1483 1481 1479 1476 1474 1471 1468 1464 1461 1458 1455 1452 1450 1448 1446 1444 1443 1442 1441 1440 1439 1439 1438 1438 1437 1437 1436 1436
1510 1509 1506 1496 1497 1497 1498 1498 1497 1495 1493 1491 1489 1487 1485 1484 1482 1479 1477 1474 1472 1468 1465 1462 1459 1455 1452 1449 1447 1444 1442 1440 1439 1437 1436 1435 1435 1434 1434 1433 1433 1432 1432 1431
1512 1513 1505 1497 1497 1498 1498 1495 1493 1493 1491 1490 1487 1484 1482 1481 1480 1478 1476 1473 1470 1466 1463 1459 1456 1452 1449 1446 1444 1441 1439 1437 1435 1433 1432 1431 1430 1429 1429 1429 1428 1427 1427 1427
1513 1509 1504 1495 1497 1495 1498 1495 1491 1490 1489 1488 1487 1486 1482 1480 1478 1476 1473 1470 1467 1463 1460 1456 1453 1450 1446 1443 1440 1438 1435 1433 1431 1430 1428 1427 1426 1425 1425 1424 1424 1423 1423 1422
1511 1510 1502 1498 1496 1496 1499 1493 1490 1488 1487 1487 1486 1485 1481 1478 1475 1473 1470 1467 1464 1460 1457 1453 1450 1447 1443 1440 1437 1435 1432 1430 1428 1426 1425 1423 1422 1421 1421 1420 1420 1419 1419 1418
1511 1511 1504 1497 1496 1497 1494 1490 1489 1487 1486 1484 1483 1480 1478 1475 1473 1470 1467 1464 1461 1457 1454 1451 1447 1444 1440 1437 1435 1432 1429 1427 1425 1423 1421 1419 1418 1417 1417 1416 1415 1415 1414 1414
1506 1501 1496 1494 1493 1492 1491 1489 1487 1486 1484 1482 1479 1477 1475 1472 1470 1467 1464 1461 1458 1455 1451 1448 1445 1442 1438 1435 1432 1429 1427 1424 1422 1420 1418 1416 1415 1414 1413 1413 1412 1411 1411 1410
1502 1495 1493 1492 1491 1490 1489 1488 1486 1484 1481 1479 1477 1474 1472 1470 1467 1465 1462 1459 1456 1452 1449 1445 1442 1439 1436 1433 1430 1427 1424 1422 1419 1417 1415 1413 1412 1411 1410 1409 1409 1408 1408 1407
1499 1494 1491 1488 1488 1487 1486 1485 1483 1481 1479 1477 1475 1472 1470 1467 1465 1463 1460 1457 1454 1450 1447 1444 1441 1437 1435 1432 1429 1426 1423 1420 1418 1415 1413 1411 1410 1409 1408 1407 1407 1407 1406 1405
1495 1492 1491 1488 1487 1486 1484 1482 1480 1478 1476 1474 1472 1470 1467 1465 1463 1461 1458 1455 1452 1449 1445 1442 1439 1436 1433 1430 1427 1424 1421 1419 1416 1414 1412 1410 1408 1407 1406 1406 1405 1404 1404 1403
1491 1489 1488 1487 1485 1484 1482 1480 1478 1476 1474 1472 1470 1468 1466 1463 1461 1459 1456 1453 1450 1447 1444 1441 1438 1435 1432 1429 1426 1423 1420 1418 1415 1413 1411 1409 1407 1406 1404 1404 1403 1402 1401 1401
1489 1488 1486 1484 1483 1482 1480 1478 1476 1474 1472 1470 1468 1466 1464 1462 1459 1457 1454 1452 1449 1446 1443 1440 1437 1434 1431 1428 1425 1422 1420 1417 1415 1412 1410 1408 1407 1405 1403 1402 1400 1399 1399 1398
1486 1485 1484 1482 1481 1479 1478 1476 1474 1472 1470 1468 1466 1464 1462 1460 1457 1455 1453 1450 1447 1445 1442 1439 1436 1433 1430 1427 1424 1421 1419 1416 1414 1412 1410 1408 1406 1404 1402 1401 1399 1398 1397 1396
1484 1483 1481 1480 1479 1477 1475 1473 1471 1469 1468 1466 1464 1462 1460 1458 1456 1453 1451 1448 1445 1442 1440 1437 1434 1432 1429 1426 1423 1420 1418 1415 1413 1411 1408 1406 1404 1403 1401 1399 1398 1396 1395 1394
1481 1480 1479 1477 1476 1475 1473 1472 1470 1468 1466 1464 1462 1460 1458 1456 1454 1451 1449 1447 1444 1441 1439 1436 1433 1431 1428 1425 1422 1419 1416 1414 1412 1409 1407 1405 1403 1401 1400 1398 1396 1395 1394 1393
1480 1479 1478 1476 1474 1473 1471 1470 1468 1466 1465 1463 1461 1459 1456 1454 1452 1449 1447 1445 1442 1440 1437 1435 1432 1429 1426 1423 1421 1418 1415 1413 1410 1408 1406 1404 1402 1400 1398 1397 1395 1393 1392 1391
1478 1477 1476 1474 1473 1471 1469 1468 1466 1465 1463 1461 1459 1457 1455 1452 1450 1448 1445 1443 1440 1437 1435 1433 1430 1427 1424 1422 1419 1416 1414 1411 1409 1406 1404 1402 1400 1399 1397 1395 1393 1392 1390 1389
1476 1475 1474 1472 1471 1469 1468 1466 1465 1463 1461 1459 1457 1455 1452 1450 1448 1446 1443 1441 1439 1436 1433 1431 1428 1425 1423 1420 1418 1415 1412 1410 1407 1405 1403 1401 1399 1397 1395 1393 1392 1390 1389 1387
1474 1473 1472 1470 1469 1467 1466 1464 1462 1461 1459 1457 1455 1453 1450 1448 1446 1444 1441 1438 1437 1434 1431 1429 1426 1424 1421 1418 1416 1413 1411 1408 1405 1403 1401 1399 1397 1395 1393 1392 1390 1389 1387 1386
1473 1471 1470 1468 1467 1465 1464 1462 1460 1459 1457 1455 1453 1451 1448 1446 1444 1441 1439 1437 1434 1432 1429 1427 1424 1422 1420 1417 1414 1411 1409 1406 1404 1401 1399 1397 1395 1393 1391 1390 1388 1387 1385 1384
1471 1469 1468 1466 1465 1463 1462 1460 1458 1457 1455 1453 1451 1448 1446 1444 1442 1439 1436 1435 1432 1430 1427 1425 1422 1420 1418 1415 1412 1409 1407 1404 1402 1399 1397 1395 1393 1391 1389 1387 1386 1384 1383 1381
1468 1467 1466 1464 1462 1461 1459 1458 1456 1454 1452 1451 1449 1446 1444 1441 1439 1437 1435 1432 1430 1427 1425 1422 1420 1417 1415 1412 1409 1407 1404 1402 1399 1397 1395 1393 1391 1388 1386 1384 1383 1381 1380 1379
1466 1465 1463 1462 1460 1458 1457 1455 1453 1452 1450 1448 1446 1444 1442 1439 1437 1434 1432 1430 1427 1425 1422 1420 1417 1415 1412 1409 1406 1404 1401 1399 1396 1394 1392 1389 1387 1385 1383 1381 1380 1378 1377 1375
1464 1462 1461 1459 1458 1456 1454 1452 1450 1449 1447 1445 1443 1441 1439 1437 1434 1432 1429 1427 1424 1422 1419 1417 1414 1411 1409 1406 1403 1401 1398 1396 1393 1391 1389 1386 1384 1382 1380 1378 1376 1375 1373 1372
1461 1460 1458 1457 1455 1454 1452 1450 1448 1446 1444 1442 1440 1438 1436 1434 1431 1429 1426 1424 1421 1419 1416 1414 1411 1409 1406 1403 1400 1398 1395 1392 1390 1388 1385 1383 1381 1379 1377 1375 1373 1371 1370 1368